Regional Weather Roundup
Issued by NWS

Home | Current Version | Previous Version | Text Only | Print | Product List | Glossary Off
Versions: 1 2 3 4 5 6 7 8 9 10 11 12 13 14 15 16 17 18 19 20 21 22 23 24 25 26 27 28 29 30 31 32 33 34 35 36 37 38 39 40 41 42 43 44 45 46 47 48 49 50

000
ASUS43 KOAX 291510
RWRNE

WEATHER ROUNDUP FOR NEBRASKA
NATIONAL WEATHER SERVICE OMAHA NE
1000 AM CDT FRI AUG 29 2014

NOTES: SATELLITE DATA IS BEING USED TO AUGMENT CLOUD COVER ABOVE
       12000 FEET.
       "FAIR" INDICATES FEW OR NO CLOUDS BELOW 12,000 FEET WITH NO
       SIGNIFICANT WEATHER AND/OR OBSTRUCTIONS TO VISIBILITY.

  * THESE STATIONS DO NOT REPORT WEATHER SUCH AS RAIN...SNOW OR FOG.

NEZ001>004-019>022-054>056-291600-
NEBRASKA PANHANDLE

CITY           SKY/WX    TMP DP  RH WIND       PRES   REMARKS
SCOTTSBLUFF    MOSUNNY   62  55  77 W7        30.02R
ALLIANCE       SUNNY     68  54  60 NW3       29.98S
CHADRON        MOSUNNY   68  56  65 W7        29.99R
KIMBALL        SUNNY     67  50  54 W8        30.04F
SIDNEY         SUNNY     69  51  52 NW9       30.02S
$$

NEZ057>060-069>072-079>082-291600-
SOUTHWEST NEBRASKA

CITY           SKY/WX    TMP DP  RH WIND       PRES   REMARKS
NORTH PLATTE   SUNNY     66  56  70 W10       29.92S
IMPERIAL       SUNNY     66  56  70 NW9       29.96S
LEXINGTON      SUNNY     67  62  82 W9        29.89S
MCCOOK         SUNNY     67  57  70 W6        29.92F
OGALLALA       SUNNY     64  59  83 W8        29.96S
$$

NEZ005>010-023>029-035>040-094-291600-
NORTH CENTRAL NEBRASKA

CITY           SKY/WX    TMP DP  RH WIND       PRES   REMARKS
VALENTINE      SUNNY     69  59  70 W6        29.88F
AINSWORTH      SUNNY     68  60  75 NW6       29.88S
BROKEN BOW     SUNNY     71  62  73 NW7       29.87S
O`NEILL        CLOUDY    67  67  99 NW7       29.84S FOG
ORD            MOSUNNY   70  63  78 NW9       29.83F
THEDFORD       SUNNY     69  59  69 W8        29.91S
$$

NEZ041-046>049-061>064-073>077-083>087-291600-
SOUTH CENTRAL NEBRASKA

CITY           SKY/WX    TMP DP  RH WIND       PRES   REMARKS
GRAND ISLAND   CLOUDY    68  64  87 CALM      29.86R
AURORA         CLOUDY    67  66  97 CALM      29.85F
HASTINGS       CLOUDY    68  62  81 NW3       29.86S
HEBRON         CLOUDY    68  63  83 CALM      29.85R
HOLDREGE       PTSUNNY   68  61  78 CALM      29.89R
KEARNEY *      MOSUNNY   70  63  78 N3        29.88R
YORK           LGT RAIN  66 N/A N/A CALM      29.85R
$$

NEZ011>018-030>034-042>045-291600-
NORTHEAST NEBRASKA

CITY           SKY/WX    TMP DP  RH WIND       PRES   REMARKS
NORFOLK        CLOUDY    70  66  87 E3        29.82S
ALBION         PTSUNNY   66  64  93 CALM      29.84R
BLAIR          CLOUDY    73  69  87 S8        29.83R
FREMONT        CLOUDY    73  69  88 S10       29.82R
TEKAMAH        CLOUDY    73  71  93 SE8       29.79F FOG
WAYNE          CLOUDY    69  67  94 CALM      29.84R
$$

NEZ050>053-065>068-078-088>093-291600-
SOUTHEAST NEBRASKA

CITY           SKY/WX    TMP DP  RH WIND       PRES   REMARKS
LINCOLN        CLOUDY    71  67  87 S9        29.84S
OMAHA EPPLEY   CLOUDY    73  69  87 S12       29.82R
BEATRICE       CLOUDY    69  67  93 S7        29.85R
FALLS CITY     CLOUDY    70  68  93 SW12      29.86F
NEBRASKA CITY  CLOUDY    70  70 100 SW13      29.85R
PLATTSMOUTH    CLOUDY    71  67  88 S9        29.83F
$$

NEZ044-045-051>053-067-291600-
OMAHA AREA

CITY           SKY/WX    TMP DP  RH WIND       PRES   REMARKS
OMAHA EPPLEY   CLOUDY    73  69  87 S12       29.82R
BLAIR          CLOUDY    73  69  87 S8        29.83R
FREMONT        CLOUDY    73  69  88 S10       29.82R
MILLARD        CLOUDY    73  68  83 S5        29.82S
OFFUTT AFB     CLOUDY    72  72  99 S7        29.82R
PLATTSMOUTH    CLOUDY    71  67  88 S9        29.83F
WAHOO          PTSUNNY   72  67  85 S9        29.82S
$$


USA.gov is the U.S. government's official web portal to all federal, state and local government web resources and services.